DELTA 1 DEB, 19429

Orbit data source: Space-Track

DELTA 1 DEB, 19429 is space debris in LEO originally from a launch on Thu, 14 Jul 1977 UTC launched from the Air Force Eastern Test Range (AFETR). Debris objects in space refer to the collection of defunct objects orbiting the Earth. Examples of debris include non-operational satellites, rocket bodies, and fragments generated from explosions, collisions, or faulty payload assembly.

Loading next visibility...
Identifier
19429, 1977-065GB
Orbit
LEO
Country
Flag of USUS
Related business
Manufacturer
Unknown
Mission
Spacecraft
Bus & Motor
Unknown
Mass
Unknown
Launch date (UTC)
1977-07-14 (48 years ago)
Launch vehicle
Unknown
Launch site
Air Force Eastern Test Range (AFETR)
Object type
Payload
Rocket body
Debris
Shape & HBR
Unknown shape, 0.1 m
Radar Cross Section
Small (<0.1 m²)

Expand to show TLE details & history
Last TLE update: 1 day ago

TLE from 1 day ago
0 DELTA 1 DEB
1 19429U 77065GB  25349.55956367  .00009164  00000-0  10255-2 0  9994
2 19429  29.1036 130.5497 0374051 224.5347 132.4596 14.45829904860060
Epoch: 2025-12-15T13:25Z
TLE epoch observation values (Epoch: 2025-12-15T13:25:46.301Z)
Latitude
-0°
Longitude
-155.34961°
Altitude
922.559 km
Speed
7.297 km/s
True Right ascension
08h 42m 11s
True Declination
0° 00' 00"
Sunlit
Object was in full shadow at epoch
Visualization orbit readout
Latitude
Unknown
Longitude
Unknown
Altitude
Unknown
Speed
Unknown
Apparent Right ascension
Unknown
Apparent Declination
Unknown
Sunlit
N/A
Visualization observer readout
Local Sidereal Time
19:05:24
Azimuth
Unknown
Elevation
Unknown
Doppler factor
Unknown
Orbital elements
Apogee altitude
1,009.686 km
Perigee altitude
476.929 km
Semi-major axis
7,121.445 km
Eccentricity
0.03741
Inclination
29.1036°
RAAN
130.5497°
Arg. of periapsis
224.5347°
True anomaly
135.52351°
Mean anomaly
132.4596°
Eccentric anomaly
134.00122°
Mean motion
3.61153 °/min
Orbital period
99.68 mins
BSTAR
0.0010255
Loading maneuver chart data...
Computing Atmospheric mass density...
Loading historical data...
Loading historical data...
Loading historical data...
Loading historical data...
Loading historical data...
Loading historical data...
Loading historical data...

Documentation

Showing up to 5 results
|